Regional Weather Roundup
Issued by NWS

Home | Current Version | Previous Version | Text Only | Print | Product List | Glossary On
Versions: 1 2 3 4 5 6 7 8 9 10 11 12 13 14 15 16 17 18 19 20 21 22 23 24 25 26 27 28 29 30 31 32 33 34 35 36 37 38 39 40 41 42 43 44 45 46 47 48 49 50
000
ASCA42 TJSJ 230210
RWRPR
PUERTO RICO/U.S. VIRGIN ISLANDS HOURLY WEATHER ROUNDUP
NATIONAL WEATHER SERVICE SAN JUAN PR
1000 PM AST WED NOV 22 2017

PRZ001>002-007>008-010-230300-
PUERTO RICO

CITY           SKY/WX    TMP DP  RH WIND       PRES   REMARKS
SAN JUAN LMM   CLEAR     81  75  83 E6        29.94R
PONCE          CLEAR     73  72  94 CALM      29.97
AGUADILLA      CLEAR     75  72  88 SE5       29.96R
$$

VIZ001>002-230300-
U.S. VIRGIN ISLANDS

CITY           SKY/WX    TMP DP  RH WIND       PRES   REMARKS
CHARLOTTE AMA    N/A    N/A N/A N/A MISG      29.94R
$$

HOURLY WEATHER ROUNDUP FOR THE NEWS MEDIA

CITY           SKY/WX    TMP DP  RH WIND       PRES   REMARKS
ORLANDO        CLOUDY    69  65  86 NE8       29.99R
NEW YORK       PTCLDY    38  24  57 NW21G28   30.06R WCI  28
NEWARK         PTCLDY    38  22  52 NW23G31   30.08R WCI  27
CHICAGO        CLOUDY    32  18  56 SW7       30.22F WCI  26
HARTFORD       PTCLDY    40  30  67 NW10G23   29.88R WCI  33
BOSTON         MOCLDY    40  31  70 NW16G28   29.88R WCI  31
DALLAS         CLEAR     48  26  42 CALM      30.28R
PHILADELPHIA   PTCLDY    40  22  48 N18G25    30.11R WCI  31
LOS ANGELES    PTCLDY    76  50  40 W9        30.00R
WASHINGTON DC  PTCLDY    37  25  61 NW13      30.18R WCI  29


USA.gov is the U.S. government's official web portal to all federal, state and local government web resources and services.